星链-36189(STARLINK-36189)

导读

STARLINK-36189是美国于2025年12月10日发射的星链卫星,星链计划是美国太空探索技术公司(SpaceX)推进的低轨卫星互联网项目,该卫星归入Starlink卫星星座组网,旨在为全球范围内用户提供高速互联网接入服务,进一步完善星链星座的全球覆盖能力与服务性能。

基本信息
目录编号:
67010
目录名称:
STARLINK-36189
国际标识:
2025-293H
轨道中心:
EARTH
卫星名称:
星链-36189
卫星全名:
星链-36189(STARLINK-36189)
卫星状态:
在轨 (已飞行185 天)
发射日期:
2025-12-10 UTC
国别 :
美国 (US)
星等 :
--
轨道信息
数据来源 国际轨道数据 AOE轨道数据
星历时间 2026-06-12T15:09:07+0800
22小时前
查看轨道信息
2026-06-12T01:00:00+0800
1天前
查看轨道信息
半长轴 6950.181km 6950.206km
偏心率 0.0004044 0.0003907
轨道倾角 70.001° 70.001°
近地点辐角 270.185° 270.671°
升交点赤经 215.735° 217.220°
平近点角 89.885° 149.693°
近地点 569.233km 569.353km
远地点 574.855km 574.785km
周期 96.107分钟 96.107分钟
每日圈数 14.98334 14.98326
详细信息
固有亮度:
5
最大亮度:
2.5
卫星平台:
Starlink V1.0
覆盖范围:
全球
运营商:
太空探索技术公司
运营商所在国:
美国
制造商(研发单位):
太空探索技术公司
制造商所在国:
美国
使用方式:
暂无
卫星简介
Starlink 计划是 SpaceX 推出的全球卫星互联网项目,通过发射低轨道卫星,为全球尤其是偏远地区提供高速、低延迟的互联网服务。自 2019 年起,Starlink 已部署数千颗卫星,旨在缩小全球数字鸿沟,推动互联网普及。该项目还为军事、航空等行业提供通信支持,带来广泛经济效益。
2D轨道图
3D轨道图
轨道高度分析图
轨道倾角分析图
轨道综合分析图
查看轨道综合分析图